FW5145 Weather Reports


Display with metric or nautical units.
time (UTC)temp
F
wind
direction
speed
MPH
gust
MPH
rain 1hr
in
rain 24hr
in
rain mn
in
humidity
%
barometer
mb
20260508112534 62 323 1.0 3.0 0.00 0.00 0.00 100 1017.2
20260508112032 62 21 1.0 4.0 0.00 0.00 0.00 100 1017.2
20260508111552 62 22 1.0 4.0 0.00 0.00 0.00 100 1017.2
20260508111034 62 0 1.0 6.0 0.00 0.00 0.00 100 1017.2
20260508110534 62 0 1.0 6.0 0.00 0.00 0.00 100 1017.2
20260508110043 62 0 0.0 3.0 0.00 0.00 0.00 100 1017.2
20260508105532 61 19 0.0 5.0 0.00 0.00 0.00 100 1017.1
20260508105037 61 28 1.0 5.0 0.00 0.00 0.00 100 1017.1
20260508104549 61 34 0.0 3.0 0.00 0.00 0.00 100 1017.2
20260508104033 60 0 0.0 3.0 0.00 0.00 0.00 100 1017.2
20260508103533 60 0 0.0 3.0 0.00 0.00 0.00 100 1017.2
20260508103049 60 0 0.0 2.0 0.00 0.00 0.00 100 1017.3
20260508102532 59 0 0.0 5.0 0.00 0.00 0.00 100 1017.3
20260508102033 59 0 0.0 5.0 0.00 0.00 0.00 100 1017.3
20260508101547 59 33 0.0 3.0 0.00 0.00 0.00 100 1017.4
20260508101032 59 344 0.0 4.0 0.00 0.00 0.00 100 1017.2
20260508100534 59 250 1.0 4.0 0.00 0.00 0.00 100 1017.2
20260508100042 58 0 0.0 2.0 0.00 0.00 0.00 100 1017.2
20260508095532 58 0 0.0 3.0 0.00 0.00 0.00 100 1017.3
20260508095034 58 26 0.0 3.0 0.00 0.00 0.00 100 1017.3
20260508094547 58 5 1.0 3.0 0.00 0.00 0.00 100 1017.2
20260508094032 57 32 0.0 3.0 0.00 0.00 0.00 100 1017.2
20260508093533 57 0 0.0 3.0 0.00 0.00 0.00 100 1017.2
20260508093052 57 26 0.0 3.0 0.00 0.00 0.00 100 1017.2
20260508092532 57 0 0.0 3.0 0.00 0.00 0.00 100 1017.1
20260508092032 57 5 0.0 3.0 0.00 0.00 0.00 100 1017.2
20260508091555 56 0 0.0 3.0 0.00 0.00 0.00 100 1017.2
20260508091033 56 24 0.0 3.0 0.00 0.00 0.00 100 1017.2
20260508090532 56 0 0.0 3.0 0.00 0.00 0.00 100 1017.3
20260508090055 56 41 0.0 3.0 0.00 0.00 0.00 100 1017.2
20260508085533 56 12 1.0 3.0 0.00 0.00 0.00 100 1017.3
20260508085034 56 0 0.0 3.0 0.00 0.00 0.00 100 1017.2
20260508084542 55 49 0.0 2.0 0.00 0.00 0.00 100 1017.2
20260508084033 55 0 0.0 3.0 0.00 0.00 0.00 100 1017.2
20260508083533 55 0 0.0 3.0 0.00 0.00 0.00 100 1017.2
20260508083041 54 0 1.0 4.0 0.00 0.00 0.00 100 1017.2
20260508082533 54 30 0.0 4.0 0.00 0.00 0.00 100 1017.2
20260508082032 54 351 0.0 4.0 0.00 0.00 0.00 100 1017.2
20260508081544 53 22 0.0 4.0 0.00 0.00 0.00 100 1017.1
20260508081033 53 0 1.0 4.0 0.00 0.00 0.00 100 1017.1
20260508080533 52 0 1.0 4.0 0.00 0.00 0.00 100 1017.1
20260508080050 51 0 0.0 0.0 0.00 0.00 0.00 100 1017.2
20260508075533 51 0 0.0 0.0 0.00 0.00 0.00 100 1017.1
20260508075033 51 0 0.0 0.0 0.00 0.00 0.00 100 1017.1
20260508074541 50 0 0.0 0.0 0.00 0.00 0.00 100 1017.0
20260508074032 49 0 0.0 0.0 0.00 0.00 0.00 100 1017.0
20260508073534 49 0 0.0 0.0 0.00 0.00 0.00 100 1017.1
20260508073048 49 0 0.0 0.0 0.00 0.00 0.00 100 1017.1
20260508072534 48 0 0.0 0.0 0.00 0.00 0.00 100 1017.0
20260508072032 48 0 0.0 0.0 0.00 0.00 0.00 100 1017.1
20260508071553 47 0 0.0 0.0 0.00 0.00 0.00 100 1017.1
20260508071033 47 0 0.0 0.0 0.00 0.00 0.00 100 1017.0
20260508070534 47 0 0.0 0.0 0.00 0.00 0.00 100 1017.0
20260508070058 46 0 0.0 0.0 0.00 0.00 0.00 100 1017.0
20260508065534 46 0 0.0 1.0 0.00 0.00 0.00 100 1016.9
20260508065032 46 0 0.0 1.0 0.00 0.00 0.00 100 1017.0
20260508064544 45 0 0.0 0.0 0.00 0.00 0.00 100 1016.9
20260508064036 45 0 0.0 0.0 0.00 0.00 0.00 100 1016.9
20260508063533 45 0 0.0 0.0 0.00 0.00 0.00 100 1016.8
20260508063041 45 0 0.0 0.0 0.00 0.00 0.00 100 1016.9
20260508062533 45 0 0.0 0.0 0.00 0.00 0.00 100 1016.9
20260508062032 44 0 0.0 0.0 0.00 0.00 0.00 100 1016.9
20260508061540 44 0 0.0 0.0 0.00 0.00 0.00 100 1016.8
20260508061032 44 0 0.0 0.0 0.00 0.00 0.00 100 1016.8
20260508060532 44 0 0.0 0.0 0.00 0.00 0.00 100 1016.7
20260508060043 44 0 0.0 0.0 0.00 0.00 0.00 100 1016.7
20260508055533 44 0 0.0 0.0 0.00 0.00 0.00 100 1016.7
20260508055032 44 0 0.0 0.0 0.00 0.00 0.00 100 1016.5
20260508054551 43 0 0.0 0.0 0.00 0.00 0.00 100 1016.5
20260508054033 43 0 0.0 0.0 0.00 0.00 0.00 100 1016.5
20260508053534 43 0 0.0 0.0 0.00 0.00 0.00 100 1016.5
20260508053050 43 0 0.0 0.0 0.00 0.00 0.00 100 1016.5
20260508052531 43 0 0.0 0.0 0.00 0.00 0.00 100 1016.4
20260508052033 43 0 0.0 0.0 0.00 0.00 0.00 100 1016.4
20260508051543 42 0 0.0 0.0 0.00 0.00 0.00 100 1016.4
20260508051033 42 0 0.0 0.0 0.00 0.00 0.00 100 1016.4
20260508050535 42 0 0.0 0.0 0.00 0.00 0.00 100 1016.4
20260508050046 42 0 0.0 0.0 0.00 0.00 0.00 100 1016.3
20260508045533 42 0 0.0 0.0 0.00 0.00 0.00 100 1016.3
20260508045033 42 0 0.0 0.0 0.00 0.00 0.00 100 1016.2
20260508044546 42 0 0.0 0.0 0.00 0.00 0.00 100 1016.3
20260508044033 42 0 0.0 0.0 0.00 0.00 0.00 100 1016.3
20260508043532 41 0 0.0 0.0 0.00 0.00 0.00 100 1016.2
20260508043036 41 0 0.0 0.0 0.00 0.00 0.00 100 1016.3
20260508042534 41 0 0.0 0.0 0.00 0.00 0.00 100 1016.2
20260508042031 41 0 0.0 0.0 0.00 0.00 0.00 100 1016.2
20260508041545 41 0 0.0 0.0 0.00 0.00 0.00 100 1016.2
20260508041033 41 0 0.0 0.0 0.00 0.00 0.00 100 1016.2
20260508040534 41 0 0.0 0.0 0.00 0.00 0.00 100 1016.2
20260508040043 42 0 0.0 0.0 0.00 0.00 0.00 100 1016.3
20260508035531 42 0 0.0 0.0 0.00 0.00 0.00 100 1016.3
20260508035032 42 0 0.0 0.0 0.00 0.00 0.00 100 1016.3
20260508034544 42 0 0.0 0.0 0.00 0.00 0.00 100 1016.3
20260508034032 42 0 0.0 0.0 0.00 0.00 0.00 100 1016.4
20260508033532 42 0 0.0 0.0 0.00 0.00 0.00 100 1016.4
20260508033050 42 0 0.0 0.0 0.00 0.00 0.00 100 1016.3
20260508032533 42 0 0.0 0.0 0.00 0.00 0.00 100 1016.3
20260508032032 42 0 0.0 0.0 0.00 0.00 0.00 100 1016.2
20260508031544 42 0 0.0 0.0 0.00 0.00 0.00 100 1016.2
20260508031034 42 0 0.0 0.0 0.00 0.00 0.00 100 1016.3
20260508030532 42 0 0.0 0.0 0.00 0.00 0.00 100 1016.2
20260508030047 42 0 0.0 0.0 0.00 0.00 0.00 100 1016.2
20260508025535 42 0 0.0 0.0 0.00 0.00 0.00 100 1016.2
20260508025032 42 0 0.0 0.0 0.00 0.00 0.00 100 1016.3
20260508024545 42 0 0.0 0.0 0.00 0.00 0.00 100 1016.3
20260508024033 42 0 0.0 0.0 0.00 0.00 0.00 100 1016.3
20260508023533 42 0 0.0 0.0 0.00 0.00 0.00 100 1016.4
20260508023043 42 0 0.0 0.0 0.00 0.00 0.00 100 1016.3
20260508022534 42 0 0.0 0.0 0.00 0.00 0.00 100 1016.3
20260508022032 42 0 0.0 0.0 0.00 0.00 0.00 100 1016.3
20260508021546 42 0 0.0 0.0 0.00 0.00 0.00 100 1016.3
20260508021032 42 0 0.0 0.0 0.00 0.00 0.00 100 1016.3
20260508020535 42 0 0.0 0.0 0.00 0.00 0.00 100 1016.3
20260508020046 42 0 0.0 0.0 0.00 0.00 0.00 100 1016.4
20260508015533 43 0 0.0 0.0 0.00 0.00 0.00 100 1016.3
20260508015035 43 0 0.0 0.0 0.00 0.00 0.00 100 1016.3
20260508014551 43 0 0.0 0.0 0.00 0.00 0.00 100 1016.3
20260508014034 43 0 0.0 0.0 0.00 0.00 0.00 100 1016.3
20260508013533 43 0 0.0 0.0 0.00 0.00 0.00 100 1016.4
20260508013042 43 0 0.0 0.0 0.00 0.00 0.00 100 1016.3
20260508012533 43 0 0.0 0.0 0.00 0.00 0.00 100 1016.3
20260508012031 43 0 0.0 0.0 0.00 0.00 0.00 100 1016.3
20260508011547 43 0 0.0 0.0 0.00 0.00 0.00 100 1016.3
20260508011033 43 0 0.0 0.0 0.00 0.00 0.00 100 1016.3
20260508010532 43 0 0.0 0.0 0.00 0.00 0.00 100 1016.4
20260508010055 43 0 0.0 0.0 0.00 0.00 0.00 100 1016.4
20260508005532 43 0 0.0 0.0 0.00 0.00 0.00 100 1016.3
20260508005032 43 0 0.0 0.0 0.00 0.00 0.00 100 1016.2
20260508004537 43 0 0.0 0.0 0.00 0.00 0.00 100 1016.4
20260508004035 43 0 0.0 0.0 0.00 0.00 0.00 100 1016.5
20260508003531 43 0 0.0 0.0 0.00 0.00 0.00 100 1016.4
20260508003044 43 0 0.0 0.0 0.00 0.00 0.00 100 1016.5
20260508002532 43 0 0.0 0.0 0.00 0.00 0.00 100 1016.4
20260508002034 44 0 0.0 0.0 0.00 0.00 0.00 100 1016.4
20260508001550 44 0 0.0 0.0 0.00 0.00 0.00 100 1016.2
20260508001032 44 0 0.0 0.0 0.00 0.00 0.00 100 1016.2
20260508000533 44 0 0.0 0.0 0.00 0.00 0.00 100 1016.3
20260508000053 44 0 0.0 0.0 0.00 0.00 0.00 100 1016.4
20260507235534 44 0 0.0 0.0 0.00 0.00 0.00 100 1016.5
20260507235034 44 0 0.0 0.0 0.00 0.00 0.00 100 1016.5
20260507234545 44 0 0.0 0.0 0.00 0.00 0.00 100 1016.5
20260507234032 44 0 0.0 0.0 0.00 0.00 0.00 100 1016.6
20260507233533 44 0 0.0 0.0 0.00 0.00 0.00 100 1016.6
20260507233044 44 0 0.0 0.0 0.00 0.00 0.00 100 1016.8
20260507232533 44 0 0.0 0.0 0.00 0.00 0.00 100 1016.8
20260507232030 45 0 0.0 0.0 0.00 0.00 0.00 100 1016.8
20260507231543 45 0 0.0 0.0 0.00 0.00 0.00 100 1016.9
20260507231059 45 0 0.0 0.0 0.00 0.00 0.00 100 1017.0
20260507230533 45 0 0.0 0.0 0.00 0.00 0.00 100 1017.0
20260507230043 45 0 0.0 0.0 0.00 0.00 0.00 100 1017.0
20260507225531 45 0 0.0 0.0 0.00 0.00 0.00 100 1017.0
20260507225033 45 0 0.0 0.0 0.00 0.00 0.00 100 1016.9
20260507224542 45 0 0.0 0.0 0.00 0.00 0.00 100 1016.9
20260507224032 45 0 0.0 0.0 0.00 0.00 0.00 100 1017.0
20260507223533 45 0 0.0 0.0 0.00 0.00 0.00 100 1017.1
20260507223040 46 0 0.0 0.0 0.00 0.00 0.00 100 1017.3
20260507222533 46 0 0.0 0.0 0.00 0.00 0.00 100 1017.3
20260507222032 46 0 0.0 0.0 0.00 0.00 0.00 100 1017.2
20260507221535 46 0 0.0 0.0 0.00 0.00 0.00 100 1017.4
20260507221036 46 0 0.0 0.0 0.00 0.00 0.00 100 1017.2
20260507220532 47 0 0.0 0.0 0.00 0.00 0.00 100 1017.3
20260507220044 47 0 0.0 0.0 0.00 0.00 0.00 100 1017.3
20260507215533 47 0 0.0 0.0 0.00 0.00 0.00 100 1017.2
20260507215033 47 0 0.0 0.0 0.00 0.00 0.00 100 1017.3
20260507214546 47 0 0.0 0.0 0.00 0.00 0.00 100 1017.2
20260507214032 47 0 0.0 1.0 0.00 0.00 0.00 100 1017.3
20260507213531 47 0 0.0 1.0 0.00 0.00 0.00 100 1017.1
20260507213050 47 0 0.0 1.0 0.00 0.00 0.00 100 1017.2
20260507212532 47 0 0.0 0.0 0.00 0.00 0.00 100 1017.2
20260507212036 47 0 0.0 0.0 0.00 0.00 0.00 100 1017.1
20260507211548 47 0 0.0 0.0 0.00 0.00 0.00 100 1017.1
20260507211034 47 0 0.0 0.0 0.00 0.00 0.00 100 1017.1
20260507210534 47 0 0.0 0.0 0.00 0.00 0.00 100 1017.2
20260507210045 47 0 0.0 0.0 0.00 0.00 0.00 100 1017.2
20260507205532 48 0 0.0 0.0 0.00 0.00 0.00 100 1017.2
20260507205034 48 0 0.0 0.0 0.00 0.00 0.00 100 1017.1
20260507204545 48 0 0.0 0.0 0.00 0.00 0.00 100 1017.1
20260507204033 48 0 0.0 0.0 0.00 0.00 0.00 100 1017.1
20260507203533 48 0 0.0 0.0 0.00 0.00 0.00 100 1017.0
20260507203043 49 0 0.0 0.0 0.00 0.00 0.00 100 1016.8
20260507202532 49 0 0.0 0.0 0.00 0.00 0.00 100 1016.9
20260507202033 49 0 0.0 0.0 0.00 0.00 0.00 100 1017.0
20260507201550 49 0 0.0 0.0 0.00 0.00 0.00 100 1016.9
20260507201032 50 0 0.0 0.0 0.00 0.00 0.00 100 1016.8
20260507200532 50 0 0.0 0.0 0.00 0.00 0.00 100 1016.7
20260507200043 50 0 0.0 0.0 0.00 0.00 0.00 100 1016.7
20260507195532 50 0 0.0 0.0 0.00 0.00 0.00 100 1016.6
20260507195033 50 0 0.0 0.0 0.00 0.00 0.00 100 1016.5
20260507194547 51 0 0.0 0.0 0.00 0.00 0.00 100 1016.5
20260507194032 51 0 0.0 1.0 0.00 0.00 0.00 100 1016.5
20260507193533 51 0 0.0 1.0 0.00 0.00 0.00 100 1016.4
20260507193045 51 0 0.0 0.0 0.00 0.00 0.00 100 1016.5
20260507192532 51 0 0.0 1.0 0.00 0.00 0.00 100 1016.3
20260507192032 51 0 0.0 1.0 0.00 0.00 0.00 100 1016.3
20260507191558 52 0 0.0 1.0 0.00 0.00 0.00 100 1016.3
20260507191032 52 0 0.0 1.0 0.00 0.00 0.00 100 1016.4
20260507190532 52 0 0.0 2.0 0.00 0.00 0.00 100 1016.3
20260507190043 52 0 0.0 2.0 0.00 0.00 0.00 100 1016.3
20260507185534 53 0 0.0 2.0 0.00 0.00 0.00 100 1016.3
20260507185033 53 0 0.0 2.0 0.00 0.00 0.00 100 1016.3
20260507184541 53 0 0.0 2.0 0.00 0.00 0.00 100 1016.4
20260507184031 53 0 0.0 2.0 0.00 0.00 0.00 100 1016.3
20260507183534 53 0 0.0 2.0 0.00 0.00 0.00 100 1016.4
20260507183051 53 0 0.0 2.0 0.00 0.00 0.00 100 1016.2
20260507182533 54 0 0.0 5.0 0.00 0.00 0.00 100 1016.2
20260507182032 54 0 0.0 5.0 0.00 0.00 0.00 100 1016.2
20260507181543 54 31 0.0 2.0 0.00 0.00 0.00 100 1016.2
20260507181033 54 0 0.0 2.0 0.00 0.00 0.00 100 1016.1
20260507180535 54 0 0.0 2.0 0.00 0.00 0.00 100 1016.1
20260507180050 55 21 0.0 2.0 0.00 0.00 0.00 100 1016.1
20260507175532 55 12 0.0 1.0 0.00 0.00 0.00 100 1016.1
20260507175032 55 0 0.0 2.0 0.00 0.00 0.00 100 1016.0
20260507174542 55 0 0.0 2.0 0.00 0.00 0.00 100 1016.0
20260507174034 55 0 0.0 2.0 0.00 0.00 0.00 100 1015.9
20260507173536 55 0 0.0 2.0 0.00 0.00 0.00 100 1015.9
20260507173054 55 0 0.0 2.0 0.00 0.00 0.00 100 1015.9
20260507172532 56 34 0.0 3.0 0.00 0.00 0.00 100 1015.8
20260507172032 56 0 0.0 3.0 0.00 0.00 0.00 100 1015.9
20260507171549 56 0 0.0 3.0 0.00 0.00 0.00 100 1015.9
20260507171034 57 37 0.0 3.0 0.00 0.00 0.00 100 1015.9
20260507170537 57 0 0.0 2.0 0.00 0.00 0.00 100 1015.9
20260507170051 57 0 0.0 3.0 0.00 0.00 0.00 100 1015.8
20260507165536 57 0 1.0 3.0 0.00 0.00 0.00 100 1015.7
20260507165039 58 0 0.0 3.0 0.00 0.00 0.00 100 1015.7
20260507164542 58 0 0.0 3.0 0.00 0.00 0.00 100 1015.8
20260507164033 58 0 0.0 1.0 0.00 0.00 0.00 100 1015.7
20260507163533 58 0 0.0 3.0 0.00 0.00 0.00 100 1015.7
20260507163043 58 0 0.0 4.0 0.00 0.00 0.00 100 1015.8
20260507162534 58 43 1.0 4.0 0.00 0.00 0.00 100 1015.8
20260507162033 57 262 0.0 2.0 0.00 0.00 0.00 100 1015.8
20260507161550 57 0 0.0 3.0 0.00 0.00 0.00 100 1015.9
20260507161032 57 0 0.0 3.0 0.00 0.00 0.00 100 1015.9
20260507160536 56 0 0.0 3.0 0.00 0.00 0.00 100 1015.9
20260507160044 56 0 0.0 2.0 0.00 0.00 0.00 100 1016.1
20260507155532 56 352 0.0 1.0 0.00 0.00 0.00 100 1016.1
20260507155035 56 0 0.0 1.0 0.00 0.00 0.00 100 1016.2
20260507154546 55 0 0.0 2.0 0.00 0.00 0.00 100 1016.2
20260507154036 55 0 0.0 2.0 0.00 0.00 0.00 100 1016.2
20260507153535 55 0 0.0 2.0 0.00 0.00 0.00 100 1016.2
20260507153045 55 337 0.0 2.0 0.00 0.00 0.00 100 1016.1
20260507152535 55 336 0.0 2.0 0.00 0.00 0.00 100 1016.1
20260507152036 55 0 0.0 1.0 0.00 0.00 0.00 100 1016.1
20260507151542 55 0 0.0 1.0 0.00 0.00 0.00 100 1016.1
20260507151035 55 0 0.0 0.0 0.00 0.00 0.00 100 1016.2
20260507150535 54 0 0.0 0.0 0.00 0.00 0.00 100 1016.2
20260507150053 54 0 0.0 0.0 0.00 0.00 0.00 100 1016.2
20260507145535 54 0 0.0 2.0 0.00 0.00 0.00 100 1016.3
20260507145033 54 0 0.0 2.0 0.00 0.00 0.00 100 1016.2
20260507144546 54 0 0.0 2.0 0.00 0.00 0.00 100 1016.2
20260507144036 54 0 0.0 3.0 0.00 0.00 0.00 100 1016.1
20260507143535 54 287 1.0 3.0 0.00 0.00 0.00 100 1016.2
20260507143056 54 0 0.0 0.0 0.00 0.00 0.00 100 1016.2
20260507142535 54 0 0.0 0.0 0.00 0.00 0.00 100 1016.2
20260507142033 54 0 0.0 2.0 0.00 0.00 0.00 100 1016.3
20260507141542 54 0 0.0 2.0 0.00 0.00 0.00 100 1016.3
20260507141036 55 0 0.0 2.0 0.00 0.00 0.00 100 1016.3
20260507140538 55 28 0.0 1.0 0.00 0.00 0.00 100 1016.5
20260507140039 55 0 0.0 2.0 0.00 0.00 0.00 100 1016.4
20260507135532 55 0 0.0 2.0 0.00 0.00 0.00 100 1016.4
20260507135034 55 0 0.0 2.0 0.00 0.00 0.00 100 1016.5
20260507134537 55 0 0.0 2.0 0.00 0.00 0.00 100 1016.5
20260507134030 55 0 0.0 2.0 0.00 0.00 0.00 100 1016.4
20260507133533 55 0 0.0 3.0 0.00 0.00 0.00 100 1016.5
20260507133047 55 0 0.0 3.0 0.00 0.00 0.00 100 1016.4
20260507132532 55 0 0.0 2.0 0.00 0.00 0.00 100 1016.4
20260507132033 55 33 0.0 3.0 0.00 0.00 0.00 100 1016.5
20260507131548 55 0 0.0 3.0 0.00 0.00 0.00 100 1016.5
20260507131033 55 26 0.0 3.0 0.00 0.00 0.00 100 1016.4
20260507130531 55 0 0.0 0.0 0.00 0.00 0.00 100 1016.5
20260507130058 55 0 0.0 0.0 0.00 0.00 0.00 100 1016.4
20260507125531 55 0 0.0 0.0 0.00 0.00 0.00 100 1016.5
20260507125032 55 0 0.0 0.0 0.00 0.00 0.00 100 1016.4
20260507124541 55 0 0.0 0.0 0.00 0.00 0.00 100 1016.4
20260507124031 55 0 0.0 1.0 0.00 0.00 0.00 100 1016.5
20260507123531 54 0 0.0 1.0 0.00 0.00 0.00 100 1016.5
20260507123035 54 0 0.0 1.0 0.00 0.00 0.00 100 1016.6
20260507122532 54 0 0.0 1.0 0.00 0.00 0.00 100 1016.6
20260507122032 54 24 0.0 3.0 0.00 0.00 0.00 100 1016.5
20260507121544 54 0 0.0 3.0 0.00 0.00 0.00 100 1016.6
20260507121032 54 54 0.0 3.0 0.00 0.00 0.00 100 1016.6
20260507120531 54 76 0.0 2.0 0.00 0.00 0.00 100 1016.7
20260507120042 54 76 0.0 2.0 0.00 0.00 0.00 100 1016.7
20260507115532 54 76 0.0 3.0 0.00 0.00 0.00 100 1016.6
20260507115032 54 0 0.0 3.0 0.00 0.00 0.00 100 1016.7
20260507114540 54 26 0.0 3.0 0.00 0.00 0.00 100 1016.6
20260507114035 54 0 0.0 3.0 0.00 0.00 0.00 100 1016.6
20260507113535 54 44 0.0 3.0 0.00 0.00 0.00 100 1016.6
20260507113049 54 39 0.0 3.0 0.00 0.00 0.00 100 1016.6